Location: ???? ???? ?????
(31.2680°N, 31.7283°E)
Time: 19:54:59
(UTC+00:00)

Cosmos 2058 - Pass Details

Date: 13 July 2020
Orbit: 561 x 584 km, 82.5° (Epoch: 05 August)

Event Time Altitude Azimuth Distance (km) Brightness Sun altitude
Exits shadow 18:32:57 24° 79° (E) 1,216 4.2 -17.6°
Drops below altitude 10° 18:35:49 10° 36° (NE) 1,873 5.6 -18.1°
Sets 18:38:17 0° 22° (NNE) 2,770 6.7 -18.5°
